Temp
-8 -8 -8 -8 -7 -7 -7 -7 -7 -7 -7 -7 -6 -6 -6 -7 -7 -7 -7 -7 -7 -7 -6 -6 -6 -7 -7 -7 -7 -7 -7 -7 -7 -6 -6 -6 -7 -7 -7 -7 -7 -7 -7
-9 -9 -8 -8 -8 -7 -7 -7 -7 -7 -7 -7 -7 -7 -7 -6 -7 -7 -7 -7 -7 -7 -7 -7 -7 -7 -7 -7 -8 -8 -7 -7 -7 -7 -7 -7 -7 -7 -7 -7 -7 -7 -7
-9 -9 -9 -8 -8 -8 -7 -7 -7 -7 -7 -7 -7 -7 -7 -7 -7 -7 -7 -7 -7 -7 -7 -7 -8 -8 -8 -8 -8 -8 -8 -8 -8 -7 -7 -7 -7 -7 -7 -7 -7 -7 -7
-10 -9 -9 -9 -9 -8 -8 -8 -7 -8 -8 -8 -7 -7 -7 -7 -7 -7 -7 -7 -7 -7 -7 -7 -8 -8 -8 -8 -8 -8 -8 -8 -8 -8 -7 -7 -7 -7 -7 -7 -7 -7 -7
-10 -10 -10 -9 -9 -9 -8 -8 -8 -8 -8 -8 -8 -8 -8 -8 -7 -7 -7 -7 -7 -7 -7 -7 -8 -8 -8 -8 -8 -8 -8 -8 -8 -8 -8 -8 -7 -7 -7 -7 -7 -7 -7
-10 -10 -10 -10 -10 -9 -9 -9 -9 -9 -8 -8 -8 -8 -8 -8 -8 -8 -8 -8 -8 -8 -8 -8 -8 -8 -8 -8 -8 -8 -8 -8 -8 -8 -8 -8 -8 -8 -7 -7 -7 -7 -7
-11 -11 -11 -11 -11 -10 -10 -9 -9 -9 -9 -9 -8 -8 -8 -8 -8 -8 -8 -8 -8 -8 -8 -8 -8 -8 -8 -8 -8 -8 -8 -8 -8 -8 -8 -8 -8 -8 -8 -8 -7 -7 -8
-10 -11 -11 -11 -11 -11 -11 -10 -10 -10 -10 -9 -9 -9 -9 -9 -9 -9 -9 -8 -8 -8 -8 -8 -8 -8 -8 -8 -8 -9 -8 -8 -8 -8 -8 -8 -8 -8 -8 -8 -8 -8 -8
-10 -11 -11 -11 -11 -11 -11 -11 -10 -10 -10 -10 -10 -10 -9 -9 -9 -9 -9 -9 -9 -9 -9 -9 -9 -9 -8 -8 -9 -9 -9 -9 -9 -8 -8 -8 -8 -8 -8 -8 -8 -8 -8
-10 -11 -12 -12 -12 -11 -11 -11 -11 -10 -10 -10 -10 -10 -10 -10 -10 -10 -10 -9 -9 -9 -9 -9 -9 -9 -9 -9 -9 -9 -9 -9 -9 -9 -9 -8 -8 -8 -8 -8 -8 -8 -8
-11 -11 -11 -12 -12 -11 -11 -12 -11 -11 -11 -11 -10 -10 -10 -10 -10 -10 -10 -10 -10 -10 -10 -10 -10 -10 -10 -10 -10 -10 -10 -9 -9 -9 -9 -9 -9 -8 -8 -8 -8 -8 -8
-12 -11 -11 -11 -12 -12 -11 -11 -12 -12 -12 -12 -12 -11 -11 -11 -11 -11 -11 -11 -10 -10 -11 -10 -10 -10 -10 -10 -10 -10 -10 -10 -9 -9 -9 -9 -9 -9 -8 -8 -8 -8 -8
-12 -12 -12 -12 -12 -12 -12 -12 -12 -13 -12 -12 -12 -11 -12 -11 -11 -11 -11 -11 -11 -11 -11 -11 -11 -11 -11 -11 -11 -10 -10 -10 -10 -10 -9 -9 -9 -9 -9 -8 -8 -8 -8
-13 -12 -12 -12 -12 -11 -12 -12 -12 -12 -12 -12 -12 -12 -12 -12 -11 -11 -11 -11 -11 -11 -11 -11 -11 -11 -11 -11 -11 -11 -11 -10 -11 -10 -10 -10 -10 -10 -9 -9 -9 -9 -9
-14 -14 -13 -13 -12 -12 -12 -12 -12 -13 -12 -12 -12 -12 -12 -12 -11 -11 -11 -11 -11 -12 -12 -12 -11 -12 -12 -12 -12 -11 -11 -11 -11 -11 -11 -11 -10 -10 -10 -10 -10 -9 -9
-15 -14 -15 -14 -13 -13 -13 -13 -13 -13 -12 -13 -12 -13 -12 -12 -12 -11 -11 -11 -11 -12 -12 -12 -12 -12 -12 -12 -12 -11 -11 -11 -11 -10 -10 -10 -11 -11 -11 -11 -11 -11 -10
-15 -15 -15 -15 -15 -15 -14 -14 -14 -15 -14 -13 -13 -13 -14 -13 -13 -12 -13 -12 -12 -13 -12 -12 -12 -12 -11 -11 -11 -11 -11 -11 -11 -10 -10 -11 -10 -11 -11 -11 -11 -11 -12
-14 -14 -14 -14 -14 -15 -15 -15 -15 -15 -14 -13 -13 -13 -12 -12 -12 -12 -12 -13 -13 -13 -12 -12 -12 -12 -11 -11 -11 -11 -11 -11 -11 -11 -11 -11 -11 -11 -11 -11 -12 -11 -12
-15 -14 -14 -14 -14 -14 -14 -14 -14 -14 -14 -14 -14 -13 -12 -12 -12 -12 -12 -12 -12 -12 -12 -12 -11 -11 -11 -11 -11 -12 -11 -11 -11 -11 -11 -11 -11 -11 -12 -12 -12 -12 -12
-15 -15 -15 -14 -14 -14 -14 -13 -13 -13 -13 -13 -13 -13 -12 -12 -12 -12 -12 -12 -12 -12 -12 -12 -12 -11 -11 -11 -11 -12 -12 -12 -12 -12 -12 -12 -12 -12 -12 -11 -11 -12 -12
-16 -15 -15 -15 -15 -14 -14 -14 -14 -14 -13 -13 -13 -13 -13 -12 -12 -12 -12 -12 -12 -12 -12 -12 -12 -12 -12 -12 -12 -12 -12 -12 -12 -12 -12 -12 -12 -12 -12 -12 -12 -12 -12
-16 -16 -16 -15 -15 -15 -14 -14 -14 -14 -14 -14 -13 -13 -13 -13 -13 -13 -12 -12 -12 -12 -12 -12 -12 -12 -12 -12 -12 -12 -12 -12 -12 -12 -12 -12 -12 -12 -12 -12 -12 -12 -12
-16 -16 -16 -16 -16 -15 -15 -15 -14 -14 -14 -14 -14 -14 -13 -13 -13 -13 -13 -13 -13 -13 -13 -13 -13 -13 -13 -13 -13 -13 -13 -12 -13 -13 -12 -12 -13 -12 -12 -12 -12 -12 -12
-17 -16 -16 -16 -16 -16 -15 -15 -15 -15 -15 -14 -14 -14 -14 -14 -14 -14 -13 -13 -13 -13 -13 -13 -13 -13 -13 -13 -13 -13 -13 -13 -13 -12 -13 -12 -13 -12 -13 -12 -12 -12 -12
-17 -17 -17 -16 -16 -15 -15 -15 -15 -15 -15 -15 -15 -15 -15 -14 -14 -14 -14 -14 -14 -13 -13 -13 -13 -13 -13 -13 -13 -13 -13 -13 -13 -13 -13 -12 -13 -13 -13 -13 -12 -12 -12
-18 -18 -17 -17 -17 -16 -16 -16 -15 -15 -15 -15 -15 -15 -15 -15 -15 -14 -14 -14 -14 -14 -14 -14 -14 -14 -14 -14 -14 -14 -14 -13 -13 -13 -13 -12 -13 -13 -13 -13 -13 -13 -12
Height
5818 5821 5823 5826 5828 5832 5834 5836 5838 5840 5843 5844 5846 5848 5850 5850 5851 5852 5852 5851 5852 5853 5855 5856 5858 5858 5859 5859 5859 5859 5859 5858 5857 5856 5855 5854 5854 5852 5851 5849 5847 5844 5840
5814 5818 5820 5823 5826 5829 5832 5834 5836 5838 5840 5843 5845 5846 5848 5849 5851 5852 5853 5853 5853 5853 5854 5855 5856 5858 5858 5859 5859 5858 5859 5859 5859 5858 5857 5856 5855 5854 5853 5851 5849 5846 5843
5811 5814 5817 5820 5823 5825 5828 5831 5833 5835 5837 5840 5843 5845 5847 5848 5850 5851 5852 5853 5853 5855 5855 5856 5856 5856 5856 5858 5858 5858 5859 5859 5859 5858 5857 5857 5857 5855 5854 5853 5852 5850 5847
5806 5809 5812 5816 5819 5821 5824 5828 5831 5833 5835 5838 5840 5842 5845 5847 5849 5850 5851 5852 5852 5854 5855 5856 5856 5857 5856 5856 5857 5858 5858 5858 5859 5859 5858 5857 5856 5856 5855 5854 5853 5852 5850
5800 5803 5807 5811 5815 5818 5820 5824 5828 5830 5833 5835 5837 5839 5841 5844 5846 5848 5849 5850 5851 5853 5855 5855 5856 5857 5857 5857 5856 5856 5857 5858 5858 5858 5859 5858 5857 5856 5854 5854 5854 5853 5852
5793 5798 5802 5805 5810 5813 5817 5820 5823 5827 5829 5831 5833 5836 5838 5841 5843 5845 5846 5847 5849 5851 5853 5854 5855 5856 5856 5857 5857 5857 5857 5857 5858 5858 5858 5858 5858 5858 5856 5854 5854 5853 5852
5783 5791 5796 5800 5805 5809 5813 5815 5819 5821 5824 5827 5830 5832 5835 5838 5840 5842 5843 5845 5847 5848 5850 5851 5853 5855 5855 5856 5857 5857 5858 5858 5858 5858 5858 5858 5858 5857 5857 5857 5855 5854 5853
5777 5784 5790 5795 5800 5804 5808 5810 5813 5817 5820 5822 5825 5829 5832 5835 5837 5839 5841 5843 5844 5846 5848 5849 5850 5852 5854 5855 5855 5856 5856 5857 5858 5858 5858 5858 5858 5858 5857 5856 5855 5855 5854
5768 5774 5781 5787 5790 5793 5797 5802 5807 5811 5815 5818 5820 5823 5827 5830 5833 5836 5838 5840 5841 5843 5845 5847 5848 5849 5851 5853 5854 5855 5855 5855 5855 5856 5858 5858 5858 5858 5858 5857 5857 5856 5855
5761 5767 5772 5779 5781 5787 5792 5797 5801 5806 5809 5813 5816 5820 5824 5827 5829 5832 5834 5836 5838 5840 5841 5843 5844 5846 5848 5850 5852 5853 5853 5854 5855 5856 5856 5856 5856 5856 5857 5857 5856 5856 5855
5752 5759 5764 5768 5775 5778 5783 5789 5794 5798 5803 5807 5812 5815 5819 5822 5825 5827 5829 5832 5834 5836 5838 5839 5841 5842 5845 5847 5849 5850 5850 5851 5852 5852 5853 5854 5854 5854 5854 5855 5855 5854 5855
5747 5753 5757 5760 5767 5771 5776 5781 5786 5792 5797 5801 5806 5810 5814 5817 5819 5822 5825 5827 5831 5833 5835 5836 5838 5839 5841 5843 5845 5846 5847 5848 5849 5850 5851 5851 5851 5852 5853 5853 5853 5853 5852
5736 5742 5747 5754 5759 5764 5769 5773 5778 5784 5788 5794 5798 5804 5808 5811 5814 5817 5820 5823 5825 5829 5830 5833 5834 5835 5837 5838 5841 5843 5844 5845 5846 5846 5847 5848 5847 5848 5849 5850 5851 5850 5850
5727 5733 5740 5744 5749 5756 5762 5766 5770 5775 5781 5786 5791 5796 5800 5803 5807 5810 5814 5817 5820 5823 5826 5828 5830 5832 5832 5833 5836 5838 5840 5841 5842 5842 5842 5843 5844 5844 5845 5845 5846 5847 5847
5720 5722 5730 5736 5742 5747 5753 5759 5765 5770 5773 5778 5782 5788 5792 5796 5800 5804 5807 5810 5812 5817 5819 5822 5824 5827 5829 5830 5831 5832 5835 5837 5838 5840 5840 5840 5841 5841 5841 5842 5842 5843 5844
5714 5717 5723 5728 5733 5738 5743 5748 5754 5760 5765 5770 5775 5779 5783 5788 5791 5795 5799 5802 5805 5809 5812 5814 5818 5821 5823 5826 5827 5828 5830 5831 5834 5834 5836 5837 5837 5837 5838 5837 5838 5839 5840
5708 5713 5718 5721 5726 5730 5735 5740 5744 5751 5758 5762 5767 5773 5776 5780 5785 5789 5791 5794 5797 5801 5804 5808 5811 5814 5818 5819 5822 5825 5825 5826 5828 5830 5831 5832 5833 5833 5833 5835 5835 5835 5836
5698 5705 5710 5716 5721 5725 5731 5734 5739 5743 5750 5754 5760 5765 5770 5774 5777 5781 5785 5789 5792 5795 5797 5801 5806 5810 5812 5814 5816 5818 5820 5821 5823 5824 5826 5828 5830 5831 5832 5832 5832 5833 5833
5688 5694 5701 5707 5712 5717 5722 5727 5732 5738 5742 5747 5751 5757 5762 5765 5769 5773 5776 5780 5784 5789 5792 5795 5799 5802 5805 5808 5810 5811 5813 5815 5817 5819 5821 5823 5825 5827 5827 5828 5830 5830 5831
5678 5684 5690 5697 5702 5707 5712 5717 5723 5728 5733 5738 5743 5747 5752 5757 5761 5765 5768 5771 5775 5779 5782 5787 5791 5793 5797 5800 5803 5805 5807 5809 5812 5814 5815 5818 5819 5822 5823 5825 5826 5827 5828
5668 5674 5679 5685 5691 5697 5702 5707 5712 5718 5723 5728 5733 5737 5742 5747 5751 5755 5759 5762 5766 5770 5773 5777 5781 5784 5788 5790 5795 5798 5801 5803 5806 5808 5811 5813 5814 5816 5818 5820 5822 5823 5825
5657 5663 5668 5674 5680 5686 5691 5696 5702 5707 5712 5717 5723 5728 5733 5737 5741 5746 5750 5754 5757 5762 5765 5768 5771 5776 5779 5782 5786 5790 5794 5797 5800 5802 5804 5806 5808 5810 5812 5814 5816 5817 5819
5644 5650 5656 5663 5669 5675 5680 5685 5691 5697 5702 5707 5713 5718 5722 5727 5732 5736 5741 5745 5749 5753 5757 5760 5763 5766 5771 5774 5778 5782 5785 5790 5792 5795 5797 5799 5801 5803 5805 5806 5808 5810 5812
5628 5636 5644 5651 5657 5663 5668 5674 5680 5686 5691 5696 5702 5707 5712 5717 5722 5726 5731 5735 5740 5744 5747 5752 5755 5758 5761 5765 5769 5773 5777 5780 5783 5787 5789 5791 5793 5796 5798 5799 5801 5802 5803
5615 5622 5629 5636 5643 5649 5655 5661 5667 5674 5679 5684 5690 5695 5700 5705 5710 5715 5720 5725 5729 5733 5737 5741 5745 5749 5753 5756 5760 5763 5767 5771 5774 5778 5781 5783 5785 5787 5789 5791 5792 5794 5796
5602 5608 5614 5621 5627 5634 5640 5647 5654 5660 5666 5672 5677 5683 5687 5693 5698 5703 5708 5713 5717 5721 5726 5730 5734 5738 5742 5746 5750 5753 5757 5760 5763 5766 5770 5773 5774 5777 5779 5780 5782 5784 5786
Wind_Speed
27 24 23 22 24 23 22 20 20 18 17 18 18 17 15 14 14 12 11 10 10 7 4 2 2 2 1 2 3 5 7 8 10 11 13 12 13 16 18 19 19 21 24
30 28 24 23 24 24 25 23 21 22 20 17 16 16 16 15 14 13 12 10 10 8 6 5 5 3 2 1 1 2 4 6 8 10 11 13 12 14 17 17 17 18 20
33 30 30 26 25 26 26 26 24 22 23 20 17 15 14 14 13 14 13 12 11 9 7 5 4 5 5 4 2 1 2 4 6 7 9 11 12 12 15 16 17 17 18
35 33 32 29 28 28 28 27 27 24 21 21 20 18 16 14 13 12 12 12 11 10 8 7 5 4 5 5 4 3 1 2 3 5 7 8 9 10 11 13 15 15 16
41 37 34 32 31 30 29 29 28 28 25 22 20 20 20 18 15 14 13 13 12 11 10 9 8 7 5 5 4 4 3 3 3 3 5 7 8 8 8 11 13 14 15
43 41 38 33 33 32 31 30 29 29 30 29 26 23 21 20 19 18 17 16 15 13 11 11 10 9 9 7 6 5 4 5 4 4 3 5 7 9 9 8 9 12 14
48 42 40 37 33 33 32 32 32 32 30 30 29 28 25 22 21 20 19 18 17 17 15 14 14 11 10 10 10 8 6 6 6 6 6 4 4 6 9 10 8 10 11
44 47 39 42 38 34 32 34 34 34 33 32 30 29 27 25 24 22 21 20 20 19 18 18 17 17 14 12 11 9 7 7 7 9 9 8 7 6 5 7 8 8 9
47 49 50 42 43 40 40 38 37 37 36 35 34 32 29 28 27 25 23 22 21 20 20 20 19 18 18 17 16 13 12 10 8 8 10 10 10 10 9 7 8 9 9
56 57 48 50 45 44 43 42 40 39 38 38 37 34 32 30 27 25 25 24 23 22 21 21 20 19 18 17 16 16 15 14 13 11 10 10 10 11 12 11 9 9 10
59 52 52 55 47 49 46 43 43 42 40 37 35 33 33 32 30 30 29 26 24 23 21 20 19 18 17 17 17 16 14 15 15 15 13 13 13 12 11 12 12 11 10
59 55 54 49 53 50 51 48 43 40 40 38 36 33 32 31 30 30 27 26 25 23 21 21 19 17 16 15 15 14 13 14 15 15 15 12 14 16 14 13 13 12 12
69 58 52 54 59 53 53 51 47 45 44 41 42 37 33 34 33 32 29 28 27 25 23 22 21 22 21 21 20 18 17 15 15 14 15 16 15 15 17 17 15 15 14
44 57 54 48 51 57 54 52 53 52 50 48 44 40 39 38 39 37 36 36 33 31 28 27 26 26 25 25 24 22 21 19 16 16 14 15 15 16 17 18 18 17 16
37 38 39 42 48 45 48 50 51 50 50 49 49 45 46 45 41 41 40 35 35 38 35 34 32 31 29 27 27 25 24 24 21 20 19 17 13 12 15 19 20 20 19
43 38 38 37 38 42 40 44 42 44 44 41 40 44 47 47 41 41 39 33 30 29 35 33 32 32 32 30 30 29 28 27 27 25 24 23 19 14 11 12 18 21 20
51 50 47 47 46 43 39 40 39 39 39 41 41 41 40 39 42 44 44 38 39 37 40 35 33 35 34 34 30 31 31 30 28 27 25 23 23 19 16 12 11 15 19
55 54 54 53 52 49 50 48 45 45 42 44 44 45 46 47 47 46 46 44 42 38 37 37 39 38 37 36 34 34 33 31 29 26 25 23 23 22 18 15 11 11 15
53 54 54 54 53 54 54 53 51 52 49 48 46 50 50 50 50 50 50 48 46 45 45 44 44 42 40 38 36 34 33 30 29 26 25 25 23 22 20 17 17 16 14
54 54 54 55 53 53 53 53 52 50 50 50 48 47 49 51 51 50 50 50 48 47 46 46 46 44 41 39 37 34 32 31 30 28 27 27 25 24 22 22 20 19 18
56 56 55 56 56 55 54 53 52 50 49 48 48 47 47 48 49 49 48 48 47 48 47 46 45 43 41 38 36 34 34 32 31 29 28 28 28 28 27 27 26 24 23
60 59 58 58 58 57 55 54 53 53 52 50 49 49 47 48 47 47 48 49 48 48 46 45 43 42 40 39 37 37 36 34 33 32 32 32 31 31 31 30 30 29 28
64 63 62 60 60 59 59 58 57 56 54 53 52 51 50 49 47 47 47 47 47 46 46 45 44 42 42 41 40 39 38 38 37 36 35 35 34 35 34 34 34 34 32
66 67 66 66 64 62 61 61 60 59 58 57 55 54 53 52 50 50 48 48 48 48 47 47 46 45 44 43 43 42 42 41 40 40 40 38 38 38 37 36 35 37 37
66 67 67 68 69 68 67 66 64 63 62 61 60 58 56 56 54 53 52 52 51 50 50 49 49 48 48 47 47 46 45 45 44 44 43 43 42 40 40 39 40 39 39
64 67 68 67 68 69 71 70 69 68 67 66 65 64 62 61 60 58 57 56 55 54 53 52 52 52 51 50 50 49 49 49 49 49 48 47 46 46 45 46 45 44 44
Wind_Direction
209 209 209 212 209 207 213 211 208 205 199 196 200 208 214 209 209 208 208 198 192 195 199 204 218 190 166 99 66 49 30 33 37 36 34 33 32 33 33 33 38 43 45
211 213 212 210 212 209 208 212 213 213 211 207 203 200 208 217 220 220 224 226 217 202 200 186 185 191 211 193 93 64 40 21 25 29 32 30 29 30 30 30 32 37 43
214 214 216 212 214 213 213 213 214 215 214 217 213 212 212 212 216 223 226 232 236 235 231 219 205 195 196 204 207 229 39 17 15 16 27 27 26 28 28 27 25 30 34
216 217 217 214 218 216 216 218 218 218 215 215 217 217 219 219 221 231 236 236 238 239 242 253 248 240 226 213 215 237 278 343 350 1 9 27 30 29 25 26 26 24 28
215 216 217 218 218 218 217 218 219 219 218 217 216 216 216 219 218 222 234 242 251 251 253 255 265 271 274 266 240 226 237 273 294 331 343 5 15 29 32 23 23 22 21
213 217 216 213 213 216 216 219 221 220 221 222 220 221 219 216 218 223 227 238 248 256 261 270 271 272 282 288 292 284 265 260 271 285 312 347 0 11 17 29 19 22 20
210 214 217 212 212 214 214 217 220 222 222 224 224 227 225 223 221 222 226 235 245 254 258 264 268 269 269 279 288 288 287 286 288 287 290 300 326 354 7 8 9 11 17
218 209 211 213 212 215 217 217 218 220 221 223 225 227 229 229 229 229 230 232 239 247 254 257 261 264 269 269 271 279 282 289 297 299 297 292 293 311 333 352 359 0 3
208 215 211 204 208 210 214 216 218 220 223 224 224 226 227 230 232 235 238 237 237 241 244 251 255 260 263 268 273 275 279 281 283 288 299 304 303 295 295 312 335 346 347
216 214 215 215 213 216 220 217 220 223 226 226 229 230 231 232 233 232 233 236 239 238 240 244 248 253 258 263 269 276 278 280 282 281 284 289 290 298 299 296 302 320 335
211 213 206 212 209 217 214 216 220 221 226 230 233 232 233 231 233 234 235 234 235 236 236 238 243 249 253 258 265 267 272 280 284 285 276 277 282 283 285 292 292 294 302
214 210 209 207 216 216 219 217 217 222 225 226 230 231 231 234 234 236 237 236 236 234 228 234 240 244 250 255 257 258 260 272 280 287 291 285 280 275 275 277 282 282 287
222 225 223 226 222 228 222 216 214 216 219 222 223 225 231 235 237 236 237 235 232 233 228 230 236 244 249 254 254 256 256 263 278 281 285 284 278 275 271 271 271 276 274
212 215 215 218 218 218 214 213 218 219 221 223 222 221 224 230 237 237 241 242 238 234 236 237 240 244 243 248 253 249 250 253 263 269 273 280 282 273 262 259 262 265 269
228 213 218 218 211 213 215 216 216 221 223 226 224 224 227 232 238 241 244 240 238 233 240 241 239 243 246 247 249 251 252 256 259 267 271 273 279 280 267 257 255 256 257
234 232 231 230 225 227 226 222 225 222 225 230 228 227 232 231 238 241 237 235 242 245 247 245 243 245 250 254 254 253 256 259 262 264 268 268 262 260 266 265 257 253 251
227 230 231 231 234 237 236 232 239 238 237 240 239 242 243 232 236 240 248 244 239 245 246 244 248 249 251 252 257 259 258 260 261 263 261 254 256 253 248 251 264 273 262
224 227 229 230 230 235 237 241 241 242 236 239 242 242 242 240 240 245 245 247 253 252 248 253 252 252 254 256 256 256 257 257 256 253 253 251 249 249 253 248 254 271 282
225 225 228 229 230 229 231 236 237 240 240 242 239 241 239 243 243 239 245 249 248 247 248 249 252 256 256 254 253 253 252 251 249 247 247 249 247 244 246 250 254 263 269
227 227 227 228 229 230 231 232 234 236 237 237 238 238 239 240 243 244 244 246 247 248 248 249 250 250 251 253 252 249 247 245 246 245 243 244 245 246 249 252 255 260 266
229 228 228 229 230 231 232 233 233 234 234 236 236 237 237 239 239 240 243 245 245 245 245 246 247 247 247 246 246 245 244 243 244 244 245 245 246 251 256 258 260 260 259
231 231 231 231 231 231 232 233 234 235 235 235 236 237 236 237 237 239 239 241 242 243 243 243 243 244 243 243 242 243 244 243 243 243 245 248 251 255 258 262 264 265 263
232 232 233 233 234 234 234 235 235 236 237 237 237 237 238 238 238 239 239 240 241 242 243 243 241 240 240 241 242 243 244 246 245 247 250 252 254 256 259 261 265 267 267
232 233 234 235 235 235 236 237 238 238 239 239 240 241 241 241 241 240 240 241 241 241 241 241 241 240 239 240 241 243 246 248 250 251 253 252 255 256 258 260 263 265 267
231 233 234 235 236 237 238 238 238 239 240 240 241 242 242 243 242 243 242 243 243 242 242 241 241 241 241 242 243 245 247 249 251 254 255 257 258 259 261 262 260 262 265
231 233 233 235 237 238 238 239 240 240 241 242 242 243 243 244 244 244 244 245 245 245 245 245 245 245 246 246 247 249 251 253 255 256 257 258 260 262 262 261 261 261 263